GFSSE_sfc_30mbdewp_057.txt.gz
Dewpoint
68 69 70 72 72 72 73 73 74 73 73 72 71 73 72 71 72 72 72 71 70 71 70 70 71 72 72 72 72 73 73 73 73 72 72 71 70 71 71 71 70 70 71
68 69 71 72 73 73 73 74 74 74 72 72 72 73 72 72 72 71 72 71 70 71 69 70 71 70 70 71 72 72 73 73 73 72 72 70 70 71 72 71 71 71 71
67 70 72 72 73 73 73 73 73 72 72 73 73 72 72 72 72 72 71 71 70 71 71 69 71 71 71 71 72 72 72 72 71 71 71 71 71 71 71 71 71 71 71
68 71 72 73 73 73 73 73 73 72 73 73 73 72 72 72 72 71 71 72 71 71 71 71 70 70 71 72 72 72 71 71 69 70 70 68 69 71 71 71 70 70 71
69 70 72 73 73 73 72 72 73 73 73 73 72 72 72 72 71 71 71 71 70 70 70 70 70 70 71 71 70 71 70 69 70 70 69 69 69 70 71 70 70 70 69
69 72 74 73 73 73 73 74 73 73 73 72 72 72 72 72 72 71 70 71 70 70 70 70 70 69 69 69 70 71 70 69 70 70 71 71 71 71 70 70 71 70 70
71 73 74 74 74 73 73 73 73 73 73 73 72 72 72 71 72 72 70 70 70 70 70 70 70 70 70 69 69 70 70 70 70 70 71 71 71 71 71 70 71 71 71
70 73 73 74 74 74 73 73 73 73 73 73 72 72 72 72 71 70 71 70 70 69 70 70 70 70 70 70 68 68 69 69 70 70 70 71 72 71 70 71 71 71 68
70 71 72 73 73 73 73 73 73 72 72 72 72 72 72 72 71 70 70 69 69 70 70 70 71 70 69 68 68 69 69 69 69 70 70 71 71 71 71 70 68 68 70
69 70 71 72 73 72 73 72 72 72 72 72 72 72 71 71 71 70 71 70 69 70 70 70 71 71 71 70 69 68 68 69 69 70 71 72 71 70 71 71 71 71 70
67 68 70 70 71 72 72 72 72 73 72 72 72 71 72 70 70 70 70 70 70 70 70 70 71 71 71 71 70 69 69 68 69 70 71 72 71 70 69 69 70 71 71
64 66 67 68 71 71 71 72 72 72 72 72 72 71 71 70 70 69 70 70 69 70 70 72 67 64 65 68 70 70 68 68 69 71 72 72 71 70 71 69 69 69 70
62 63 65 68 70 68 71 72 72 72 71 71 70 69 70 70 68 68 69 69 69 70 68 71 64 61 62 67 68 70 68 66 68 70 72 72 71 70 71 71 70 71 70
58 61 66 68 68 69 70 71 71 70 70 68 65 68 70 68 67 67 69 66 66 69 67 70 66 65 67 68 67 67 65 67 70 71 73 72 71 70 70 71 70 70 70
63 65 68 68 68 69 70 70 67 69 69 68 69 67 68 69 68 69 69 68 69 70 70 70 66 66 69 69 68 65 64 66 68 71 72 72 72 71 70 69 70 69 69
63 65 67 65 64 66 69 68 66 66 67 69 68 63 66 69 70 69 68 69 68 66 68 66 69 67 67 68 64 64 67 67 67 69 71 72 72 72 71 71 69 69 71
65 66 65 63 60 66 69 67 68 68 68 68 68 68 69 69 70 70 68 66 65 69 69 69 68 68 67 66 61 62 66 68 68 68 69 69 71 72 72 70 69 69 68
65 65 67 67 67 68 69 68 68 67 67 69 70 71 71 71 71 71 69 69 67 68 66 61 62 64 64 62 63 62 64 66 67 67 68 69 70 68 70 70 69 69 68
62 65 65 65 67 68 70 65 65 66 67 70 69 72 70 71 69 68 69 70 68 67 66 65 65 63 63 62 61 62 63 63 66 67 67 68 69 70 70 71 70 70 70
61 61 65 66 67 66 69 67 66 69 67 69 71 71 71 70 67 64 68 70 68 66 65 67 66 62 64 60 58 60 64 62 62 64 66 68 69 69 69 70 72 71 71
61 61 65 66 66 69 68 67 68 66 67 67 70 71 71 72 70 70 69 70 67 65 63 67 64 62 63 62 58 60 58 61 61 62 63 65 68 68 68 68 69 69 69
61 61 65 67 67 69 67 68 68 67 65 66 70 70 71 71 70 67 69 70 69 68 69 68 68 64 64 62 60 63 55 56 59 59 61 60 62 68 68 69 69 69 67
63 63 66 68 67 68 66 67 69 67 68 67 68 69 71 72 71 71 71 70 68 69 68 68 67 67 62 62 61 61 56 56 60 61 58 60 58 64 65 66 69 68 68
62 64 66 69 68 69 67 66 67 66 66 65 66 69 71 70 70 71 69 69 70 70 70 69 69 67 64 62 60 62 62 61 57 57 61 60 59 62 62 63 65 65 65
62 63 67 69 68 67 69 66 66 65 66 67 68 69 70 71 71 70 71 71 70 69 68 69 69 69 69 67 62 62 60 60 62 61 58 58 60 61 60 62 63 63 63
62 63 66 69 67 67 67 68 65 65 65 66 67 66 70 71 72 72 71 71 71 70 70 70 71 69 68 69 67 66 60 60 61 61 60 60 58 59 62 61 61 64 64

GFSSE_sfc_30mbdewp_060.txt.gz
Dewpoint
68 70 71 72 72 73 73 73 72 72 71 72 73 71 72 72 72 72 70 71 71 70 70 72 72 72 72 73 73 73 73 73 73 71 71 70 71 72 71 70 71 71 70
68 70 72 73 73 73 74 74 73 72 71 73 72 72 72 72 72 72 70 71 70 69 70 70 70 71 72 72 73 73 73 74 73 71 71 71 71 71 71 71 71 71 70
68 71 73 73 73 73 74 73 73 72 73 73 72 72 73 72 72 71 71 71 72 69 70 71 71 71 71 72 72 72 72 73 72 71 72 71 71 71 71 71 71 70 70
69 72 72 74 74 73 73 73 72 72 73 73 72 72 72 72 71 71 72 72 71 71 70 69 71 70 71 72 71 71 71 71 71 70 69 70 70 71 71 69 70 70 71
70 72 72 73 74 73 73 73 72 73 73 73 73 72 72 71 71 71 71 70 70 70 70 70 70 70 71 71 71 70 70 71 71 70 69 69 70 70 70 70 70 70 71
70 71 73 72 72 72 72 72 73 72 73 72 72 72 72 72 71 70 71 70 70 70 70 70 69 70 70 71 70 70 70 71 71 71 71 72 71 70 70 70 68 70 70
71 73 73 74 74 73 74 73 73 73 73 73 72 72 72 71 71 70 70 70 70 70 70 70 69 70 70 71 70 69 71 71 71 71 71 71 71 71 70 71 70 70 69
72 73 74 74 74 73 73 73 73 73 73 72 72 72 72 72 70 71 71 70 70 70 70 70 69 70 70 69 70 71 71 70 70 70 71 71 71 70 71 70 70 69 68
73 73 73 73 73 73 73 73 73 73 72 72 72 72 72 71 71 71 70 70 70 70 70 70 70 69 68 69 68 70 71 71 70 70 70 72 72 71 71 69 67 71 70
72 72 72 73 73 73 74 73 73 73 72 72 72 72 71 71 70 70 71 70 70 70 70 71 71 70 69 69 70 71 70 70 70 70 71 72 70 69 69 71 71 69 68
70 72 72 72 72 72 73 72 73 72 72 72 71 71 71 70 70 70 71 70 70 70 70 70 71 71 71 70 69 69 70 70 70 71 71 72 70 70 71 71 71 70 70
68 70 71 72 72 72 72 72 72 73 72 72 72 71 70 70 70 70 70 70 70 70 71 71 67 69 68 68 70 70 70 69 70 71 72 72 71 70 69 70 71 70 70
68 69 69 70 71 71 72 72 72 72 72 71 70 70 70 70 70 70 70 70 70 70 71 69 65 64 67 68 69 68 68 69 70 71 72 72 71 70 71 69 69 70 70
66 67 68 70 70 69 72 72 72 71 71 70 70 69 70 69 68 69 68 67 68 68 65 69 65 65 68 69 68 67 67 68 70 71 73 72 71 70 70 70 70 70 70
64 66 67 69 69 70 71 71 71 71 71 69 67 69 69 68 68 68 68 67 67 69 67 68 65 65 67 68 67 65 67 69 70 71 72 71 71 70 71 70 70 70 69
62 65 68 68 69 70 70 70 69 70 70 69 68 67 68 70 69 68 68 68 69 69 70 68 68 66 66 68 65 65 66 67 70 71 71 72 72 72 70 69 69 69 70
64 66 67 66 68 69 69 69 66 67 68 69 67 64 68 70 69 67 68 69 68 69 68 66 68 67 67 67 64 66 66 66 67 70 71 71 73 72 72 71 69 70 70
64 65 65 64 65 68 68 68 69 68 68 68 68 68 68 70 70 70 68 68 66 69 66 65 67 67 66 64 63 66 67 67 67 67 69 70 71 72 72 71 70 71 69
65 65 64 62 67 68 67 68 67 68 69 68 69 70 71 70 70 69 69 69 68 67 67 64 65 65 64 63 62 63 65 67 67 67 68 68 68 68 69 71 70 70 69
64 65 65 65 67 68 68 65 67 68 68 70 70 71 71 69 68 68 69 68 68 66 64 65 64 62 64 62 60 62 63 64 66 67 67 68 68 69 69 69 71 71 71
64 64 65 65 67 68 67 65 67 66 67 68 71 71 70 69 66 67 69 69 66 64 62 67 63 61 64 62 58 59 59 63 62 64 66 67 68 68 69 69 70 71 70
62 63 65 65 66 67 67 67 67 67 67 67 70 71 71 70 70 68 68 69 67 67 65 68 66 65 63 62 59 61 53 55 61 61 63 65 66 68 68 68 68 69 68
60 64 65 66 67 67 66 68 68 67 67 67 69 70 71 71 70 69 70 69 68 69 68 68 67 64 57 61 62 58 54 54 59 61 60 61 61 66 68 68 68 68 68
60 65 66 66 67 67 66 66 67 66 65 65 67 69 71 71 70 70 71 70 68 69 68 67 69 66 63 60 60 63 62 61 56 55 60 61 60 64 65 66 68 68 68
60 63 67 66 67 67 66 64 66 66 66 65 67 68 69 71 71 71 69 70 70 70 69 68 69 69 67 65 61 61 60 60 62 60 57 58 60 61 63 63 63 65 65
61 62 67 67 66 67 66 65 64 66 65 66 66 67 69 71 71 70 69 70 70 69 68 69 69 67 68 68 66 65 60 59 61 61 60 59 58 58 61 62 62 63 63

GFSSE_sfc_30mbdewp_063.txt.gz
Dewpoint
67 69 72 72 72 73 72 72 71 71 73 72 71 72 72 72 71 71 71 71 70 71 72 72 72 72 73 72 72 72 72 72 71 71 72 71 71 71 71 71 70 69 70
68 70 72 72 72 73 72 72 71 71 73 72 72 73 73 73 72 70 72 70 70 70 70 71 71 71 72 73 72 72 73 72 72 71 71 71 71 70 70 70 70 70 69
68 71 73 73 73 73 74 72 71 72 73 72 73 72 72 72 72 70 71 71 69 72 70 70 71 72 72 72 72 72 72 72 72 71 71 71 70 71 70 70 70 67 66
70 73 73 73 73 73 73 72 72 73 72 72 73 72 72 72 71 72 71 71 70 69 71 70 70 71 72 72 71 71 72 71 70 71 70 70 71 71 68 69 71 69 69
71 72 73 74 73 73 73 72 72 73 72 72 72 72 72 71 71 71 71 71 70 70 70 71 70 71 71 71 71 71 71 71 71 70 70 70 70 68 71 70 70 70 70
71 72 73 73 73 73 73 72 72 73 72 72 72 72 71 71 71 70 70 70 70 70 69 69 70 71 71 70 70 70 71 71 71 71 71 72 71 70 69 68 70 69 67
71 72 73 73 72 72 72 73 72 73 72 72 72 72 72 71 70 71 71 71 71 70 69 69 70 71 70 70 70 70 72 71 71 71 71 71 71 70 70 70 70 67 66
72 72 73 73 72 73 73 72 73 73 73 72 72 72 71 71 71 71 71 71 70 69 69 69 70 70 70 70 71 72 71 71 71 71 71 71 71 71 71 71 69 68 68
73 73 73 73 73 73 73 73 73 72 72 72 72 72 71 70 71 71 70 70 70 69 69 70 70 69 69 70 70 71 71 71 70 70 71 72 71 71 70 67 70 71 70
73 73 73 73 73 73 73 73 72 72 72 72 72 72 71 71 70 70 71 71 70 69 70 69 69 69 70 71 70 72 71 71 70 70 71 71 71 69 69 70 69 68 69
71 72 72 72 73 73 72 72 72 72 72 71 71 71 71 70 70 70 71 70 70 70 70 68 69 70 70 70 71 71 71 70 70 71 71 71 71 71 71 71 70 70 69
70 71 72 72 72 72 72 72 72 72 72 72 72 71 70 70 70 70 71 70 70 70 71 69 69 70 69 69 70 70 69 70 70 71 71 71 70 69 69 71 71 69 70
69 71 71 71 72 72 71 72 72 72 72 72 71 71 70 70 70 70 70 70 70 71 71 66 65 66 68 68 69 69 69 69 70 71 72 72 71 70 69 69 69 70 69
69 70 70 71 71 71 72 72 72 71 71 70 70 70 69 69 69 69 69 68 68 67 66 67 65 67 68 68 68 67 68 69 70 71 72 72 71 71 70 70 71 70 69
67 68 69 70 70 70 71 71 71 71 71 70 69 69 70 68 67 68 67 67 67 68 67 67 64 66 67 68 67 66 68 68 70 71 72 71 71 70 70 70 70 70 69
66 67 67 70 69 70 71 71 70 70 71 69 68 69 69 68 67 68 67 67 68 68 68 67 67 66 66 67 66 66 67 69 70 71 71 71 71 71 70 70 70 69 70
65 66 67 69 69 69 70 70 69 69 70 69 67 68 68 70 68 68 68 68 68 67 68 68 67 67 66 67 65 65 66 68 69 70 71 71 72 71 71 70 69 69 71
64 65 67 68 68 69 69 69 68 67 68 69 68 66 68 70 69 68 67 68 67 69 68 65 66 67 65 64 63 65 66 66 67 69 70 70 71 72 72 72 70 69 70
64 66 66 67 67 68 68 69 68 66 68 68 68 67 69 70 70 69 68 69 67 66 64 63 65 66 64 63 63 65 67 67 67 67 68 68 69 70 70 72 72 71 70
65 66 65 65 67 68 67 67 67 68 69 68 68 69 71 70 70 69 69 68 68 66 66 65 64 64 64 62 61 62 64 65 67 67 67 68 67 68 68 68 69 71 70
64 64 63 64 67 68 66 65 66 66 68 68 69 70 70 69 68 68 69 69 67 65 64 65 62 62 63 62 59 59 59 62 63 66 67 67 67 68 69 69 68 70 70
63 64 64 64 67 68 66 66 67 67 67 68 69 70 70 69 66 67 68 68 65 64 65 67 65 65 63 62 57 59 53 54 61 62 63 65 66 68 68 68 68 69 69
63 64 64 64 67 67 66 67 67 67 67 67 69 70 70 71 69 68 68 69 68 67 67 67 66 63 57 61 62 58 54 52 59 61 60 62 63 65 67 68 68 68 67
63 63 64 64 66 67 67 66 66 65 64 65 67 69 70 71 70 69 69 70 68 69 68 67 68 65 60 58 60 63 61 60 55 54 59 61 61 61 63 66 67 68 68
62 63 64 65 66 66 66 66 66 65 65 65 66 68 70 70 70 70 70 70 68 69 68 68 69 67 65 64 58 61 59 61 62 59 56 58 60 61 62 64 64 65 67
60 63 64 65 66 66 66 65 65 65 66 65 65 66 68 70 70 70 70 70 69 69 69 68 69 68 67 67 65 62 60 59 61 61 59 59 58 58 60 62 62 63 63

GFSSE_sfc_30mbdewp_069.txt.gz
Dewpoint
66 69 71 72 71 71 71 72 72 71 72 72 71 71 71 71 71 71 72 72 73 72 71 73 73 72 71 71 72 72 72 72 71 71 71 71 70 70 70 69 69 68 70
66 70 72 72 71 72 71 73 73 72 72 72 71 70 71 71 72 71 70 71 72 72 72 72 72 71 72 72 72 72 72 71 71 70 69 70 70 70 69 70 70 70 69
66 70 71 73 72 72 71 72 72 72 73 72 73 73 71 71 71 70 70 71 70 71 72 71 72 72 72 72 72 72 72 71 71 71 70 67 69 70 66 67 70 68 66
66 69 70 74 72 72 71 72 72 72 73 73 73 72 71 71 71 71 70 71 71 70 71 71 71 72 72 72 72 72 72 72 72 70 67 65 67 70 70 68 65 66 68
68 69 70 73 74 72 72 73 72 72 73 72 72 72 72 72 71 71 70 70 71 70 71 71 71 71 72 71 71 71 72 72 71 68 66 69 67 70 71 69 68 70 70
68 69 72 73 73 73 72 73 72 72 73 72 72 71 71 71 71 71 70 70 70 70 71 71 71 71 71 70 71 71 71 71 69 68 68 70 67 70 70 66 69 70 69
68 69 70 73 73 73 73 73 73 73 72 72 72 72 71 71 71 70 70 70 69 70 71 70 70 70 70 71 72 71 71 71 70 69 69 68 70 71 68 67 67 68 68
67 69 70 73 73 73 72 72 72 72 72 72 72 72 71 70 70 69 69 69 69 70 70 70 71 71 71 72 72 72 72 70 68 69 68 69 71 71 68 69 68 68 70
68 69 71 70 71 72 73 72 72 72 72 72 72 71 71 70 70 71 70 68 69 70 70 70 71 71 72 72 72 72 72 71 68 68 68 68 71 67 70 71 70 68 69
68 69 69 69 71 71 72 72 72 72 73 72 71 71 71 70 71 70 70 69 70 70 70 70 71 71 71 72 71 71 71 69 68 69 69 69 69 69 68 68 69 68 70
68 69 69 71 71 72 71 72 72 72 72 72 70 73 71 69 69 69 71 69 69 69 69 70 70 70 71 72 72 71 68 67 66 66 65 70 70 70 71 71 69 70 69
67 69 69 71 70 71 71 72 71 70 70 71 71 72 70 70 70 70 70 70 69 68 69 70 71 70 69 70 70 70 65 67 67 66 67 71 71 70 70 71 70 69 69
65 68 70 71 71 70 72 70 70 70 70 71 71 71 71 70 70 70 71 69 70 69 66 68 67 67 69 69 69 68 66 66 66 66 68 70 69 70 71 69 71 69 71
66 69 70 70 72 71 71 69 71 69 70 69 70 71 70 67 68 69 68 70 69 67 67 65 66 69 69 69 68 68 67 65 65 66 69 71 71 70 69 70 70 69 69
66 68 69 70 72 72 72 72 70 69 69 69 70 71 70 69 68 69 69 68 68 68 67 66 68 68 68 68 68 68 67 66 66 66 66 71 71 70 70 70 70 70 69
66 67 69 70 71 71 71 72 71 70 69 69 69 70 71 71 70 69 68 68 69 69 68 67 67 68 67 67 67 68 66 65 67 67 67 68 71 71 71 70 70 69 70
65 67 68 69 70 71 71 71 69 68 68 68 70 71 70 71 71 70 70 69 69 69 70 70 69 68 66 66 67 66 66 66 65 67 67 67 68 71 72 71 70 69 69
64 67 69 67 69 70 70 71 68 68 69 70 70 69 70 70 72 71 70 69 69 70 68 67 67 66 65 65 65 66 66 66 66 67 67 67 67 67 70 72 73 72 70
65 66 68 67 68 69 70 69 69 69 69 70 70 70 70 70 72 71 69 69 70 68 66 65 67 66 64 64 64 65 66 66 67 65 67 67 67 67 67 69 71 72 71
64 65 66 67 68 69 69 70 68 69 69 69 70 70 70 70 72 71 70 70 69 67 66 66 67 66 65 64 61 63 65 66 67 66 66 66 67 67 67 68 68 66 68
63 65 66 67 69 69 68 66 67 67 68 68 69 71 71 71 72 72 70 69 69 66 67 67 66 66 64 65 62 61 62 64 64 64 65 65 66 66 67 67 69 68 67
63 65 66 67 69 69 68 68 68 68 68 69 70 71 71 72 72 71 71 69 69 66 68 68 67 65 65 64 61 61 55 57 59 62 64 64 65 65 65 67 68 69 69
63 65 66 67 69 69 68 69 69 69 69 69 70 69 70 72 69 70 71 70 69 68 67 69 67 67 62 64 66 60 55 55 59 61 63 62 64 63 64 65 66 67 68
62 64 66 67 68 70 70 68 67 66 65 66 68 68 70 72 71 70 71 71 70 67 69 69 69 67 64 61 64 64 65 63 58 56 60 61 63 62 63 63 63 64 67
62 64 65 67 68 68 70 68 68 67 66 67 68 70 70 73 72 71 71 71 71 70 70 70 70 67 66 63 61 63 64 63 65 62 57 59 61 62 62 63 63 64 65
62 63 64 66 67 68 69 69 68 67 67 66 67 68 68 70 72 72 71 72 72 71 71 70 71 71 70 68 66 65 62 62 62 62 60 62 62 62 63 63 64 64 64

GFSSE_sfc_30mbdewp_072.txt.gz
Dewpoint
65 67 71 70 71 71 72 71 71 71 71 71 71 71 71 72 72 72 72 72 72 72 73 73 72 72 72 72 72 72 72 72 72 71 71 70 71 70 70 70 68 68 70
65 67 72 72 71 71 74 72 72 72 72 71 71 71 71 72 71 70 71 72 71 72 73 72 72 72 72 72 72 72 71 71 71 70 70 71 70 71 71 71 69 67 68
64 67 70 73 72 71 73 72 72 73 73 73 73 71 71 71 70 71 71 70 71 72 72 72 72 72 72 72 72 72 71 71 71 70 69 64 63 67 70 69 66 66 68
63 64 67 73 72 71 73 71 72 73 73 73 72 72 71 72 71 71 71 71 71 71 71 72 72 72 72 72 72 72 72 72 70 69 60 63 66 70 66 67 68 68 68
63 64 70 73 73 72 73 72 72 73 72 71 72 72 72 71 71 70 70 71 70 71 71 72 72 71 71 72 72 72 72 71 68 65 65 62 64 70 68 70 70 68 69
63 64 73 74 72 72 72 72 72 73 72 72 71 71 71 71 70 70 70 71 70 71 71 72 72 70 70 71 71 71 71 69 66 63 62 67 69 67 66 70 70 68 70
62 65 70 73 73 72 73 73 73 73 72 71 71 71 71 71 70 70 70 70 71 71 71 71 71 70 70 71 71 71 71 68 63 66 66 67 69 68 67 68 67 70 70
61 64 69 73 73 73 72 73 72 72 72 72 71 71 70 70 69 70 70 69 70 70 71 71 70 70 71 72 71 71 70 67 63 65 67 67 70 69 69 68 69 70 70
62 64 67 69 72 73 72 72 72 72 72 71 71 71 70 70 70 70 69 70 70 70 70 70 70 71 72 72 72 72 71 68 64 65 66 66 70 70 70 70 68 70 70
62 65 65 64 65 67 70 72 72 72 72 71 71 71 71 70 70 69 71 71 70 70 71 70 70 71 72 71 71 71 70 69 65 64 61 65 70 68 68 69 69 70 68
63 64 61 64 68 70 70 72 72 71 71 70 71 70 69 64 65 66 70 70 70 70 70 70 70 72 72 71 71 70 70 61 60 60 64 70 70 70 70 69 69 69 69
62 62 61 65 66 68 69 69 66 66 64 65 66 67 65 66 69 66 69 69 69 70 70 71 69 69 68 67 66 68 60 62 60 60 67 71 70 70 70 70 70 70 69
62 60 63 65 67 67 69 64 63 64 65 68 68 66 67 65 64 63 66 66 66 68 65 67 66 66 66 64 61 59 61 59 59 60 69 70 69 69 69 70 69 69 70
62 61 63 66 67 67 66 62 64 64 65 65 67 68 67 64 64 64 64 66 65 63 64 64 66 68 68 66 63 61 60 59 59 59 67 71 71 70 70 71 69 69 70
61 63 63 66 68 69 66 64 64 65 63 65 66 68 66 65 66 65 66 65 64 64 64 66 66 66 66 65 64 64 62 63 62 60 62 70 71 70 70 69 69 69 69
61 64 64 66 69 69 66 67 66 65 65 65 65 68 69 66 68 67 66 65 65 64 65 65 66 65 63 63 65 64 63 64 65 64 63 67 70 71 71 69 70 69 70
60 62 64 65 67 68 67 68 65 65 64 65 66 69 69 68 70 69 67 66 65 67 68 67 66 65 62 62 65 65 63 64 65 65 63 63 68 70 71 71 70 70 69
59 62 65 64 66 67 66 68 66 66 65 66 66 66 69 69 68 68 65 65 67 66 65 64 64 62 61 61 62 62 63 62 64 65 64 63 64 64 69 71 72 72 71
61 63 64 65 66 66 68 66 66 67 66 66 66 66 69 68 67 67 65 66 69 65 64 62 63 62 61 60 59 61 62 61 63 61 64 64 64 63 62 69 69 71 71
62 63 64 65 66 67 68 68 66 66 66 67 67 67 69 68 69 68 66 68 66 63 63 63 64 63 61 60 57 58 59 59 61 60 61 61 63 64 62 65 65 66 69
62 61 63 64 67 67 66 65 65 65 66 66 67 69 70 69 70 70 67 67 66 63 65 67 64 63 59 61 57 55 56 60 59 58 59 59 61 62 63 63 64 63 64
61 60 63 64 68 67 64 64 65 65 65 66 67 69 68 69 70 69 68 67 66 63 66 66 65 59 59 61 56 55 52 55 56 56 58 58 60 59 60 62 63 65 65
60 60 63 65 67 67 64 66 69 68 69 70 68 67 68 70 70 69 70 65 69 65 62 66 65 64 56 60 64 57 53 51 55 56 58 56 60 58 59 61 62 63 65
59 61 63 66 68 68 68 66 66 64 62 63 65 65 68 70 69 69 70 70 70 65 65 66 66 64 64 55 58 60 64 63 56 53 55 56 58 57 59 57 58 60 64
60 61 63 67 68 67 69 66 67 67 63 65 64 69 68 71 69 69 70 70 70 67 68 67 69 67 62 56 56 58 62 61 65 57 51 53 54 56 57 58 59 59 63
60 61 62 66 68 69 70 70 68 66 65 62 65 69 66 69 69 69 69 70 70 68 69 68 69 69 65 63 59 62 59 60 58 57 54 55 55 57 58 59 60 61 63

GFSSE_sfc_30mbdewp_075.txt.gz
Dewpoint
66 68 71 71 71 72 72 71 72 71 71 71 71 71 72 72 72 72 72 72 73 73 72 72 72 72 72 72 72 71 72 71 71 71 70 71 71 70 69 68 68 68 70
65 67 72 72 72 72 71 71 72 72 72 71 71 71 72 71 70 71 72 72 72 73 72 72 72 72 72 72 72 71 71 71 72 71 69 70 70 71 70 68 66 69 70
64 67 69 72 71 73 72 72 72 73 72 72 71 72 71 70 71 71 70 72 72 72 72 72 72 72 72 72 72 71 71 71 71 70 62 58 65 69 65 66 67 69 71
61 62 65 73 72 73 72 72 72 71 71 71 72 72 72 71 71 72 71 71 71 72 72 72 72 72 72 72 72 72 71 71 69 69 64 62 61 66 69 70 69 70 70
59 62 69 73 72 73 72 72 72 72 72 72 72 72 71 71 70 71 71 70 71 72 72 72 72 72 72 72 72 72 71 68 65 61 63 64 61 69 70 70 68 70 70
63 65 71 72 72 73 73 72 73 72 72 71 72 71 71 71 71 71 71 71 71 71 71 71 70 71 72 71 71 71 71 69 65 61 64 65 63 69 70 68 70 70 69
64 66 70 73 72 73 72 72 72 72 72 72 71 71 71 71 70 70 71 71 71 71 71 71 70 71 71 71 71 71 70 68 66 68 65 64 66 67 67 70 70 70 69
60 64 69 73 72 73 72 72 72 72 72 71 71 71 70 70 71 70 70 71 71 71 71 70 70 71 71 71 71 71 70 69 66 67 65 64 70 69 68 70 70 69 69
63 63 67 69 72 72 72 72 72 72 72 71 71 71 70 71 69 69 71 70 70 70 69 69 70 72 72 72 72 71 69 68 67 67 62 67 71 70 70 68 70 70 70
62 62 63 64 64 67 70 72 72 72 71 71 71 71 71 70 69 71 71 70 70 69 70 71 71 71 71 71 70 69 69 68 63 62 64 68 70 68 69 71 70 68 69
62 59 58 60 65 69 69 71 71 71 71 71 70 70 69 67 66 68 71 70 70 70 70 71 72 72 71 70 69 69 70 61 58 62 66 71 71 70 69 69 68 69 69
60 55 58 63 64 67 65 69 66 66 68 66 66 69 69 67 64 66 69 70 70 70 70 70 71 72 69 64 63 69 62 58 59 62 67 71 71 70 70 70 70 71 69
55 55 62 63 67 68 64 61 61 62 61 63 66 67 64 63 64 63 67 67 68 70 66 68 70 69 68 59 56 56 57 57 58 62 69 70 70 68 70 69 69 69 70
55 56 60 62 69 65 62 60 62 62 64 64 66 66 63 61 62 64 66 63 66 67 64 67 64 66 63 61 58 57 56 56 57 60 70 72 70 69 71 69 69 69 70
56 57 60 63 69 69 62 61 65 60 65 62 67 67 67 65 64 65 64 65 64 63 62 63 66 65 63 62 61 60 59 59 58 60 62 71 70 70 69 69 69 69 69
56 58 61 64 68 67 65 65 65 66 60 65 65 66 67 64 66 64 64 64 64 66 67 66 68 65 64 61 63 62 63 62 62 63 64 66 70 70 70 69 69 69 69
57 60 61 63 66 67 66 65 66 63 63 65 66 67 66 69 67 65 62 65 65 67 66 65 63 63 63 62 63 62 61 63 62 63 63 66 68 70 70 69 69 69 69
56 60 61 60 64 64 64 64 66 65 66 67 66 67 67 67 68 69 64 64 63 64 65 65 65 63 64 63 63 63 60 60 61 61 60 62 67 67 70 71 71 71 70
56 61 61 61 63 63 65 64 66 66 67 67 67 68 68 67 68 66 64 65 68 66 64 63 63 62 61 61 60 61 60 60 62 59 60 61 61 61 65 70 69 70 71
60 61 62 62 64 65 65 65 64 63 67 67 68 70 68 69 68 67 65 66 70 64 67 65 65 64 62 61 57 58 60 57 57 57 59 59 61 62 61 63 68 67 70
60 60 62 63 65 65 65 62 62 64 68 67 69 68 68 69 68 68 65 66 69 64 65 64 63 62 59 59 63 56 55 57 57 55 56 56 59 60 60 62 63 63 68
60 60 62 63 67 66 64 65 61 64 66 68 70 67 67 68 68 67 68 65 66 64 66 64 65 64 58 59 62 60 53 53 53 55 56 56 58 57 58 61 61 64 64
59 59 62 64 67 67 64 64 65 65 66 67 67 65 67 69 68 68 69 68 65 67 63 65 63 64 62 56 61 59 59 54 53 56 56 56 58 57 57 59 60 62 64
58 58 61 64 66 67 65 65 66 64 63 61 65 67 67 68 68 68 67 68 67 66 67 63 62 66 63 55 55 57 63 64 62 50 53 55 56 56 57 56 58 59 63
57 59 62 66 67 67 67 68 66 67 64 63 69 69 68 69 68 67 68 68 69 68 64 67 67 66 59 59 56 57 60 57 59 59 50 52 54 54 56 58 57 58 62
57 58 62 67 68 68 68 69 68 66 67 66 67 66 65 65 67 67 68 69 69 70 67 66 67 67 67 64 62 60 60 61 61 53 52 55 54 56 56 58 59 60 61